VCP658R EBLG-LHBP

Flight info

Callsign VCP658R
Flight time 1h 39m
Altitude 35000
Route LNO L607 UBIDU L984 RUDUS DCT BOMBI L984 OKG DCT ODNEM DCT NIT M748 ARFOX
Aircraft A320/M-SDE3FGHIRWY/LB1

Departure

Time 2026-04-23 15:17
Airport Liège Airport (EBLG)

Arrival

Time 2026-04-23 16:56
Airport Budapest Liszt Ferenc International Airport (LHBP)
Time Latitude Longitude Altitude Speed Heading
2026-04-23 14:38 50.64395 5.45988 629 ft 0 kts 134°
2026-04-23 15:06 50.64404 5.45974 602 ft 4 kts 135°
2026-04-23 15:06 50.64423 5.45945 602 ft 3 kts 135°
2026-04-23 15:07 50.64439 5.45923 603 ft 4 kts 154°
2026-04-23 15:07 50.64460 5.45919 603 ft 4 kts 220°
2026-04-23 15:07 50.64478 5.45945 602 ft 4 kts 222°
2026-04-23 15:07 50.64486 5.45956 602 ft 0 kts 226°
2026-04-23 15:11 50.64483 5.45952 602 ft 3 kts 226°
2026-04-23 15:11 50.64460 5.45915 603 ft 5 kts 225°
2026-04-23 15:11 50.64427 5.45864 603 ft 9 kts 225°
2026-04-23 15:11 50.64367 5.45769 614 ft 15 kts 225°
2026-04-23 15:12 50.64284 5.45641 615 ft 17 kts 224°
2026-04-23 15:12 50.64199 5.45509 620 ft 17 kts 225°
2026-04-23 15:12 50.64113 5.45373 610 ft 18 kts 226°
2026-04-23 15:12 50.64028 5.45231 621 ft 18 kts 226°
2026-04-23 15:13 50.63940 5.45092 626 ft 18 kts 225°
2026-04-23 15:13 50.63853 5.44953 624 ft 18 kts 225°
2026-04-23 15:13 50.63765 5.44815 625 ft 18 kts 224°
2026-04-23 15:13 50.63676 5.44679 625 ft 18 kts 224°
2026-04-23 15:14 50.63587 5.44540 631 ft 18 kts 226°
2026-04-23 15:14 50.63500 5.44395 629 ft 18 kts 226°
2026-04-23 15:14 50.63410 5.44250 628 ft 18 kts 224°
2026-04-23 15:14 50.63319 5.44109 635 ft 18 kts 225°
2026-04-23 15:15 50.63230 5.43968 633 ft 16 kts 225°
2026-04-23 15:15 50.63200 5.43847 639 ft 12 kts 301°
2026-04-23 15:15 50.63287 5.43823 634 ft 14 kts 358°
2026-04-23 15:15 50.63356 5.43805 634 ft 8 kts 27°
2026-04-23 15:16 50.63429 5.43920 630 ft 35 kts 46°
2026-04-23 15:16 50.63764 5.44452 629 ft 98 kts 45°
2026-04-23 15:16 50.64366 5.45401 618 ft 145 kts 45°
2026-04-23 15:16 50.65135 5.46607 992 ft 154 kts 46°
2026-04-23 15:17 50.65907 5.47819 1647 ft 159 kts 41°
2026-04-23 15:17 50.66702 5.49038 2284 ft 160 kts 43°
2026-04-23 15:17 50.67522 5.50344 2617 ft 178 kts 44°
2026-04-23 15:17 50.68446 5.51821 2890 ft 201 kts 43°
2026-04-23 15:18 50.69480 5.53476 3298 ft 218 kts 44°
2026-04-23 15:18 50.70191 5.54616 3795 ft 220 kts 45°
2026-04-23 15:18 50.71647 5.56893 4897 ft 222 kts 38°
2026-04-23 15:18 50.73059 5.57824 5646 ft 226 kts
2026-04-23 15:19 50.74603 5.57278 6370 ft 235 kts 329°
2026-04-23 15:19 50.75683 5.55340 7115 ft 244 kts 295°
2026-04-23 15:19 50.76199 5.52758 7845 ft 248 kts 288°
2026-04-23 15:19 50.76660 5.50116 8598 ft 251 kts 288°
2026-04-23 15:20 50.76964 5.48347 9116 ft 253 kts 287°
2026-04-23 15:20 50.77406 5.44585 9788 ft 277 kts 268°
2026-04-23 15:20 50.76807 5.41603 10203 ft 297 kts 237°
2026-04-23 15:20 50.75272 5.39360 10641 ft 312 kts 207°
2026-04-23 15:21 50.73109 5.38518 10832 ft 331 kts 176°
2026-04-23 15:21 50.70871 5.39421 10970 ft 348 kts 149°
2026-04-23 15:21 50.68993 5.41934 11098 ft 364 kts 127°
2026-04-23 15:21 50.67613 5.45322 11491 ft 371 kts 115°
2026-04-23 15:22 50.66489 5.49011 12049 ft 376 kts 112°
2026-04-23 15:22 50.65400 5.52785 12641 ft 380 kts 113°
2026-04-23 15:22 50.64226 5.56540 13224 ft 384 kts 116°
2026-04-23 15:22 50.62933 5.60258 13815 ft 389 kts 118°
2026-04-23 15:23 50.61535 5.63945 14297 ft 395 kts 120°
2026-04-23 15:23 50.60065 5.67625 14796 ft 399 kts 121°
2026-04-23 15:23 50.59023 5.70025 15132 ft 402 kts 126°
2026-04-23 15:23 50.57115 5.73258 15668 ft 405 kts 136°
2026-04-23 15:24 50.55020 5.76245 16176 ft 408 kts 136°
2026-04-23 15:24 50.52938 5.79285 16727 ft 409 kts 135°
2026-04-23 15:24 50.50856 5.82376 17243 ft 413 kts 135°
2026-04-23 15:24 50.48770 5.85494 17811 ft 414 kts 135°
2026-04-23 15:25 50.46677 5.88617 18366 ft 417 kts 135°
2026-04-23 15:25 50.44564 5.91760 18846 ft 420 kts 135°
2026-04-23 15:25 50.42439 5.94905 19333 ft 422 kts 135°
2026-04-23 15:25 50.40294 5.98063 19864 ft 422 kts 135°
2026-04-23 15:26 50.38150 6.01207 20392 ft 423 kts 135°
2026-04-23 15:26 50.35990 6.04366 20870 ft 425 kts 135°
2026-04-23 15:26 50.33831 6.07540 21338 ft 426 kts 134°
2026-04-23 15:26 50.31910 6.11056 21749 ft 426 kts 124°
2026-04-23 15:27 50.30405 6.15059 22194 ft 426 kts 114°
2026-04-23 15:27 50.29368 6.19382 22614 ft 426 kts 104°
2026-04-23 15:27 50.28795 6.23926 23015 ft 427 kts 98°
2026-04-23 15:27 50.28327 6.28529 23390 ft 429 kts 99°
2026-04-23 15:28 50.27844 6.33144 23780 ft 431 kts 99°
2026-04-23 15:28 50.27348 6.37781 24114 ft 433 kts 99°
2026-04-23 15:28 50.26844 6.42430 24448 ft 435 kts 99°
2026-04-23 15:28 50.26344 6.47041 24778 ft 436 kts 99°
2026-04-23 15:29 50.25832 6.51783 25121 ft 437 kts 99°
2026-04-23 15:29 50.25330 6.56403 25440 ft 438 kts 99°
2026-04-23 15:29 50.24809 6.61142 25916 ft 436 kts 100°
2026-04-23 15:29 50.24301 6.65743 26396 ft 434 kts 100°
2026-04-23 15:30 50.23793 6.70364 26904 ft 431 kts 100°
2026-04-23 15:30 50.23285 6.74979 27406 ft 429 kts 100°
2026-04-23 15:30 50.22779 6.79554 27909 ft 427 kts 100°
2026-04-23 15:30 50.22274 6.84167 28429 ft 425 kts 99°
2026-04-23 15:31 50.21994 6.88686 28918 ft 423 kts 95°
2026-04-23 15:31 50.21763 6.93273 29401 ft 421 kts 95°
2026-04-23 15:31 50.21532 6.97816 29915 ft 419 kts 95°
2026-04-23 15:31 50.21296 7.02350 30427 ft 417 kts 95°
2026-04-23 15:32 50.21058 7.06850 30856 ft 415 kts 95°
2026-04-23 15:32 50.20818 7.11329 31290 ft 414 kts 95°
2026-04-23 15:32 50.20578 7.15801 31721 ft 412 kts 95°
2026-04-23 15:32 50.20335 7.20240 32159 ft 410 kts 96°
2026-04-23 15:33 50.20088 7.24675 32595 ft 409 kts 96°
2026-04-23 15:33 50.19843 7.29081 33030 ft 407 kts 96°
2026-04-23 15:33 50.19444 7.33451 33457 ft 405 kts 103°
2026-04-23 15:33 50.18642 7.37661 33897 ft 404 kts 108°
2026-04-23 15:34 50.17765 7.41812 34350 ft 401 kts 107°
2026-04-23 15:34 50.16893 7.45933 34727 ft 400 kts 108°
2026-04-23 15:34 50.16022 7.50043 35034 ft 399 kts 108°
2026-04-23 15:34 50.15150 7.54159 35273 ft 400 kts 108°
2026-04-23 15:35 50.14272 7.58300 35333 ft 405 kts 108°
2026-04-23 15:35 50.12465 7.66782 35333 ft 417 kts 108°
2026-04-23 15:36 50.10619 7.75390 35322 ft 419 kts 108°
2026-04-23 15:36 50.08769 7.84005 35323 ft 420 kts 107°
2026-04-23 15:37 50.07028 7.92686 35317 ft 419 kts 102°
2026-04-23 15:37 50.05712 8.01526 35313 ft 419 kts 102°
2026-04-23 15:38 50.04812 8.10465 35309 ft 419 kts 90°
2026-04-23 15:38 50.04941 8.19486 35307 ft 419 kts 89°
2026-04-23 15:39 50.05078 8.28571 35312 ft 419 kts 89°
2026-04-23 15:39 50.05198 8.37644 35315 ft 419 kts 89°
2026-04-23 15:40 50.05310 8.46725 35315 ft 419 kts 89°
2026-04-23 15:40 50.05419 8.55804 35313 ft 419 kts 89°
2026-04-23 15:41 50.05521 8.64857 35320 ft 419 kts 89°
2026-04-23 15:41 50.05608 8.73935 35312 ft 419 kts 89°
2026-04-23 15:42 50.05698 8.82996 35309 ft 419 kts 89°
2026-04-23 15:42 50.05853 8.91996 35308 ft 419 kts 88°
2026-04-23 15:43 50.06032 9.01063 35300 ft 419 kts 88°
2026-04-23 15:43 50.06187 9.10128 35295 ft 419 kts 89°
2026-04-23 15:44 50.06326 9.19202 35292 ft 419 kts 88°
2026-04-23 15:44 50.06445 9.28282 35288 ft 420 kts 88°
2026-04-23 15:45 50.06554 9.37380 35290 ft 420 kts 89°
2026-04-23 15:45 50.06661 9.46472 35292 ft 420 kts 89°
2026-04-23 15:46 50.06770 9.55581 35287 ft 420 kts 89°
2026-04-23 15:46 50.06872 9.64681 35295 ft 420 kts 88°
2026-04-23 15:47 50.06959 9.73725 35305 ft 420 kts 88°
2026-04-23 15:47 50.07045 9.82827 35296 ft 420 kts 88°
2026-04-23 15:48 50.07134 9.91927 35303 ft 420 kts 88°
2026-04-23 15:48 50.07212 10.01031 35297 ft 420 kts 88°
2026-04-23 15:49 50.07281 10.10133 35305 ft 420 kts 88°
2026-04-23 15:49 50.07328 10.19230 35307 ft 420 kts 88°
2026-04-23 15:50 50.07356 10.28331 35299 ft 420 kts 88°
2026-04-23 15:50 50.07396 10.37429 35298 ft 420 kts 88°
2026-04-23 15:51 50.07446 10.46507 35296 ft 419 kts 88°
2026-04-23 15:51 50.07488 10.55536 35294 ft 419 kts 88°
2026-04-23 15:52 50.07511 10.64609 35302 ft 419 kts 88°
2026-04-23 15:52 50.07521 10.73686 35292 ft 419 kts 88°
2026-04-23 15:53 50.07532 10.82762 35287 ft 419 kts 88°
2026-04-23 15:53 50.07532 10.91855 35277 ft 419 kts 88°
2026-04-23 15:54 50.07517 11.00928 35273 ft 419 kts 88°
2026-04-23 15:54 50.07499 11.10015 35277 ft 419 kts 88°
2026-04-23 15:55 50.07482 11.19096 35273 ft 419 kts 88°
2026-04-23 15:55 50.07460 11.28161 35270 ft 419 kts 88°
2026-04-23 15:56 50.07428 11.37234 35268 ft 419 kts 88°
2026-04-23 15:56 50.07386 11.46315 35265 ft 419 kts 88°
2026-04-23 15:57 50.07338 11.55374 35274 ft 418 kts 87°
2026-04-23 15:57 50.07277 11.64427 35267 ft 418 kts 87°
2026-04-23 15:58 50.07219 11.73492 35264 ft 418 kts 87°
2026-04-23 15:58 50.07159 11.82546 35261 ft 418 kts 87°
2026-04-23 15:59 50.07090 11.91541 35260 ft 418 kts 88°
2026-04-23 15:59 50.07011 12.00590 35272 ft 418 kts 87°
2026-04-23 16:00 50.06924 12.09643 35265 ft 418 kts 87°
2026-04-23 16:00 50.06814 12.18674 35258 ft 418 kts 88°
2026-04-23 16:01 50.06691 12.27721 35255 ft 418 kts 88°
2026-04-23 16:01 50.06556 12.36751 35249 ft 418 kts 89°
2026-04-23 16:02 50.05363 12.45669 35258 ft 427 kts 104°
2026-04-23 16:02 50.03361 12.54378 35244 ft 428 kts 104°
2026-04-23 16:03 50.01364 12.63054 35235 ft 428 kts 104°
2026-04-23 16:03 49.99354 12.71760 35231 ft 428 kts 104°
2026-04-23 16:04 49.97336 12.80485 35232 ft 428 kts 105°
2026-04-23 16:04 49.95654 12.87720 35248 ft 429 kts 104°
2026-04-23 16:05 49.93618 12.96427 35237 ft 429 kts 104°
2026-04-23 16:05 49.91572 13.05125 35228 ft 429 kts 104°
2026-04-23 16:06 49.89523 13.13817 35226 ft 429 kts 104°
2026-04-23 16:06 49.87475 13.22491 35213 ft 428 kts 104°
2026-04-23 16:07 49.85416 13.31158 35216 ft 428 kts 105°
2026-04-23 16:07 49.83355 13.39788 35216 ft 427 kts 105°
2026-04-23 16:08 49.81298 13.48360 35213 ft 427 kts 105°
2026-04-23 16:08 49.79234 13.56982 35208 ft 427 kts 105°
2026-04-23 16:09 49.77155 13.65598 35209 ft 427 kts 105°
2026-04-23 16:09 49.75062 13.74216 35222 ft 427 kts 105°
2026-04-23 16:10 49.72971 13.82839 35218 ft 428 kts 104°
2026-04-23 16:10 49.70873 13.91446 35210 ft 428 kts 105°
2026-04-23 16:11 49.68780 13.99989 35208 ft 428 kts 105°
2026-04-23 16:11 49.66672 14.08568 35194 ft 428 kts 105°
2026-04-23 16:12 49.64551 14.17145 35209 ft 428 kts 104°
2026-04-23 16:12 49.62420 14.25722 35202 ft 428 kts 104°
2026-04-23 16:13 49.60287 14.34298 35185 ft 428 kts 105°
2026-04-23 16:13 49.57081 14.47140 35181 ft 428 kts 105°
2026-04-23 16:14 49.54937 14.55706 35194 ft 429 kts 104°
2026-04-23 16:14 49.52774 14.64262 35186 ft 429 kts 104°
2026-04-23 16:15 49.50604 14.72814 35178 ft 429 kts 104°
2026-04-23 16:15 49.48430 14.81361 35171 ft 429 kts 104°
2026-04-23 16:16 49.46266 14.89857 35162 ft 429 kts 105°
2026-04-23 16:16 49.44062 14.98446 35189 ft 429 kts 105°
2026-04-23 16:17 49.41882 15.06923 35169 ft 429 kts 105°
2026-04-23 16:17 49.39689 15.15440 35165 ft 429 kts 105°
2026-04-23 16:18 49.37490 15.23956 35162 ft 429 kts 105°
2026-04-23 16:18 49.35282 15.32448 35180 ft 429 kts 105°
2026-04-23 16:19 49.33071 15.40938 35170 ft 429 kts 105°
2026-04-23 16:19 49.30846 15.49427 35161 ft 429 kts 105°
2026-04-23 16:20 49.28614 15.57901 35157 ft 429 kts 105°
2026-04-23 16:20 49.26380 15.66367 35151 ft 429 kts 105°
2026-04-23 16:21 49.24139 15.74838 35169 ft 429 kts 105°
2026-04-23 16:21 49.21888 15.83303 35153 ft 429 kts 105°
2026-04-23 16:22 49.19627 15.91762 35147 ft 429 kts 105°
2026-04-23 16:22 49.17361 16.00218 35128 ft 430 kts 105°
2026-04-23 16:23 49.15109 16.08611 35126 ft 430 kts 105°
2026-04-23 16:23 49.12833 16.17049 35139 ft 430 kts 105°
2026-04-23 16:24 49.10536 16.25548 35131 ft 430 kts 105°
2026-04-23 16:24 49.08262 16.33939 35123 ft 431 kts 105°
2026-04-23 16:25 49.05960 16.42384 35106 ft 431 kts 105°
2026-04-23 16:25 49.03643 16.50830 35130 ft 431 kts 105°
2026-04-23 16:26 49.01332 16.59265 35112 ft 432 kts 105°
2026-04-23 16:26 48.99007 16.67709 35105 ft 433 kts 105°
2026-04-23 16:27 48.96675 16.76161 35098 ft 433 kts 106°
2026-04-23 16:27 48.94333 16.84605 35096 ft 433 kts 106°
2026-04-23 16:28 48.91976 16.93048 35113 ft 434 kts 106°
2026-04-23 16:28 48.89613 17.01506 35096 ft 435 kts 106°
2026-04-23 16:29 48.87253 17.09917 35082 ft 436 kts 106°
2026-04-23 16:29 48.84346 17.18071 35067 ft 449 kts 120°
2026-04-23 16:30 48.80082 17.25146 35065 ft 456 kts 127°
2026-04-23 16:30 48.75695 17.32106 35077 ft 456 kts 127°
2026-04-23 16:31 48.71308 17.39053 35064 ft 456 kts 127°
2026-04-23 16:31 48.66940 17.45958 35066 ft 456 kts 127°
2026-04-23 16:32 48.62541 17.52901 35064 ft 457 kts 127°
2026-04-23 16:32 48.58134 17.59827 35067 ft 457 kts 127°
2026-04-23 16:33 48.53726 17.66734 35075 ft 457 kts 127°
2026-04-23 16:33 48.49305 17.73632 35078 ft 456 kts 127°
2026-04-23 16:34 48.44896 17.80510 35073 ft 456 kts 127°
2026-04-23 16:34 48.40488 17.87375 35072 ft 456 kts 127°
2026-04-23 16:35 48.36070 17.94222 35081 ft 456 kts 128°
2026-04-23 16:35 48.31642 18.01070 35068 ft 457 kts 128°
2026-04-23 16:36 48.27269 18.07877 34944 ft 455 kts 127°
2026-04-23 16:36 48.25138 18.11367 34704 ft 453 kts 126°
2026-04-23 16:36 48.23044 18.14897 34005 ft 455 kts 124°
2026-04-23 16:37 48.20934 18.18500 33055 ft 459 kts 124°
2026-04-23 16:37 48.18819 18.22106 32183 ft 461 kts 124°
2026-04-23 16:37 48.16686 18.25717 31234 ft 466 kts 125°
2026-04-23 16:37 48.14515 18.29349 30341 ft 468 kts 126°
2026-04-23 16:38 48.12320 18.32987 29228 ft 473 kts 126°
2026-04-23 16:38 48.10096 18.36645 28113 ft 476 kts 127°
2026-04-23 16:38 48.07863 18.40310 27046 ft 478 kts 127°
2026-04-23 16:38 48.05616 18.43994 25807 ft 483 kts 128°
2026-04-23 16:39 48.03340 18.47731 24559 ft 489 kts 129°
2026-04-23 16:39 48.01036 18.51517 23344 ft 494 kts 129°
2026-04-23 16:39 47.98736 18.55290 22553 ft 486 kts 130°
2026-04-23 16:39 47.96478 18.58986 21712 ft 478 kts 130°
2026-04-23 16:40 47.94260 18.62646 20752 ft 474 kts 129°
2026-04-23 16:40 47.92074 18.66283 19877 ft 469 kts 129°
2026-04-23 16:40 47.89907 18.69894 19049 ft 464 kts 129°
2026-04-23 16:40 47.87768 18.73449 18236 ft 460 kts 129°
2026-04-23 16:41 47.85638 18.76974 17335 ft 455 kts 129°
2026-04-23 16:41 47.83554 18.80413 16490 ft 450 kts 129°
2026-04-23 16:41 47.81468 18.83849 15663 ft 444 kts 129°
2026-04-23 16:41 47.79408 18.87239 14878 ft 439 kts 129°
2026-04-23 16:42 47.77364 18.90596 14092 ft 436 kts 129°
2026-04-23 16:42 47.75334 18.93932 13285 ft 433 kts 129°
2026-04-23 16:42 47.73321 18.97232 12515 ft 428 kts 129°
2026-04-23 16:42 47.71328 19.00495 11787 ft 424 kts 129°
2026-04-23 16:43 47.69376 19.03684 11453 ft 409 kts 129°
2026-04-23 16:43 47.67497 19.06742 11333 ft 389 kts 129°
2026-04-23 16:43 47.65711 19.09638 11207 ft 372 kts 129°
2026-04-23 16:43 47.64007 19.12401 11078 ft 355 kts 129°
2026-04-23 16:44 47.62386 19.15035 10951 ft 336 kts 129°
2026-04-23 16:44 47.60851 19.17528 10827 ft 320 kts 129°
2026-04-23 16:44 47.59373 19.19934 10528 ft 313 kts 128°
2026-04-23 16:44 47.57926 19.22297 10290 ft 306 kts 129°
2026-04-23 16:45 47.56510 19.24606 10176 ft 306 kts 129°
2026-04-23 16:45 47.55076 19.26937 10040 ft 305 kts 129°
2026-04-23 16:45 47.53643 19.29264 9694 ft 309 kts 129°
2026-04-23 16:45 47.52194 19.31615 9376 ft 306 kts 129°
2026-04-23 16:46 47.50758 19.33938 9031 ft 305 kts 129°
2026-04-23 16:46 47.49330 19.36239 8643 ft 302 kts 129°
2026-04-23 16:46 47.47914 19.38515 8029 ft 300 kts 129°
2026-04-23 16:46 47.46512 19.40773 7443 ft 298 kts 128°
2026-04-23 16:47 47.45106 19.43044 6971 ft 300 kts 128°
2026-04-23 16:47 47.43705 19.45302 6710 ft 296 kts 128°
2026-04-23 16:47 47.42318 19.47534 6391 ft 295 kts 128°
2026-04-23 16:47 47.40931 19.49762 6087 ft 293 kts 129°
2026-04-23 16:48 47.39579 19.51934 5926 ft 279 kts 129°
2026-04-23 16:48 47.38285 19.54004 5479 ft 273 kts 130°
2026-04-23 16:48 47.36978 19.56092 4777 ft 279 kts 131°
2026-04-23 16:48 47.35684 19.58151 4527 ft 265 kts 131°
2026-04-23 16:49 47.34853 19.59467 4141 ft 266 kts 131°
2026-04-23 16:49 47.32825 19.61437 3545 ft 262 kts 165°
2026-04-23 16:49 47.31074 19.61702 3409 ft 247 kts 191°
2026-04-23 16:49 47.29479 19.60961 3278 ft 232 kts 216°
2026-04-23 16:50 47.28291 19.59509 3157 ft 221 kts 239°
2026-04-23 16:50 47.27557 19.57588 3067 ft 213 kts 259°
2026-04-23 16:50 47.27322 19.55495 2982 ft 204 kts 278°
2026-04-23 16:50 47.27565 19.53461 2915 ft 200 kts 295°
2026-04-23 16:51 47.28226 19.51695 2828 ft 195 kts 311°
2026-04-23 16:51 47.29176 19.50277 2763 ft 195 kts 319°
2026-04-23 16:51 47.29820 19.49352 2712 ft 195 kts 317°
2026-04-23 16:51 47.30757 19.47914 2629 ft 192 kts 315°
2026-04-23 16:52 47.31642 19.46509 2544 ft 182 kts 315°
2026-04-23 16:52 47.32483 19.45163 2505 ft 177 kts 315°
2026-04-23 16:52 47.33312 19.43836 2505 ft 175 kts 315°
2026-04-23 16:52 47.34097 19.42575 2516 ft 157 kts 316°
2026-04-23 16:53 47.34797 19.41448 2486 ft 142 kts 316°
2026-04-23 16:53 47.35444 19.40410 2375 ft 135 kts 316°
2026-04-23 16:53 47.36073 19.39400 2230 ft 133 kts 316°
2026-04-23 16:53 47.36696 19.38400 2069 ft 132 kts 316°
2026-04-23 16:54 47.37316 19.37404 1902 ft 131 kts 315°
2026-04-23 16:54 47.37932 19.36414 1730 ft 131 kts 315°
2026-04-23 16:54 47.38546 19.35426 1547 ft 131 kts 315°
2026-04-23 16:54 47.39160 19.34439 1367 ft 129 kts 315°
2026-04-23 16:55 47.39762 19.33468 1206 ft 126 kts 315°
2026-04-23 16:55 47.40365 19.32499 1003 ft 136 kts 315°
2026-04-23 16:55 47.40992 19.31478 814 ft 134 kts 314°
2026-04-23 16:55 47.41621 19.30465 665 ft 135 kts 314°
2026-04-23 16:56 47.42261 19.29437 539 ft 136 kts 313°
2026-04-23 16:56 47.42860 19.28472 483 ft 109 kts 314°
2026-04-23 16:56 47.43258 19.27834 485 ft 60 kts 313°
2026-04-23 16:56 47.43466 19.27504 494 ft 33 kts 313°
2026-04-23 16:57 47.43605 19.27280 488 ft 28 kts 311°
2026-04-23 16:57 47.43718 19.27053 484 ft 28 kts 291°
2026-04-23 16:57 47.43755 19.26811 490 ft 22 kts 283°
2026-04-23 16:57 47.43789 19.26604 490 ft 16 kts 283°
2026-04-23 16:58 47.43793 19.26461 489 ft 14 kts 235°
2026-04-23 16:58 47.43706 19.26355 482 ft 18 kts 219°
2026-04-23 16:58 47.43617 19.26237 485 ft 18 kts 222°
2026-04-23 16:58 47.43526 19.26114 480 ft 18 kts 223°
2026-04-23 16:59 47.43477 19.26047 478 ft 7 kts 216°
2026-04-23 16:59 47.43445 19.26077 477 ft 6 kts 133°
2026-04-23 16:59 47.43420 19.26117 480 ft 3 kts 131°
2026-04-23 16:59 47.43417 19.26121 481 ft 0 kts 131°